Time,TemperatureF,DewpointF,PressureIn,WindDirection,WindDirectionDegrees,WindSpeedMPH,WindSpeedGustMPH,Humidity,HourlyPrecipIn,Conditions,Clouds,dailyrainin,SoftwareType,DateUTC
2013-07-16 00:01:00,61.0,28.0,-100.00,NE,49,3.0,6.0,28,-99.99,,,-99.99,,2013-07-16 06:01:00,
2013-07-16 00:21:00,61.0,27.0,-100.00,ENE,73,4.0,6.0,27,-99.99,,,-99.99,,2013-07-16 06:21:00,
2013-07-16 00:31:00,61.0,27.0,-100.00,ENE,78,3.0,6.0,27,-99.99,,,-99.99,,2013-07-16 06:31:00,
2013-07-16 00:43:00,61.0,26.0,-100.00,ESE,121,4.0,6.0,26,-99.99,,,-99.99,,2013-07-16 06:43:00,
2013-07-16 01:01:00,61.0,27.0,-100.00,ENE,71,3.0,5.0,27,-99.99,,,-99.99,,2013-07-16 07:01:00,
2013-07-16 01:11:00,61.0,27.0,-100.00,ENE,75,3.0,6.0,27,-99.99,,,-99.99,,2013-07-16 07:11:00,
2013-07-16 01:32:00,61.0,27.0,-100.00,East,88,4.0,5.0,27,-99.99,,,-99.99,,2013-07-16 07:32:00,
2013-07-16 01:43:00,60.0,26.0,-100.00,East,82,4.0,5.0,27,-99.99,,,-99.99,,2013-07-16 07:43:00,
2013-07-16 02:01:00,60.0,26.0,-100.00,East,100,4.0,6.0,27,-99.99,,,-99.99,,2013-07-16 08:01:00,
2013-07-16 02:11:00,60.0,26.0,-100.00,East,100,4.0,6.0,27,-99.99,,,-99.99,,2013-07-16 08:11:00,
2013-07-16 02:22:00,60.0,27.0,-100.00,ENE,75,5.0,7.0,28,-99.99,,,-99.99,,2013-07-16 08:22:00,
2013-07-16 02:32:00,60.0,28.0,-100.00,NNE,30,3.0,6.0,29,-99.99,,,-99.99,,2013-07-16 08:32:00,
2013-07-16 02:43:00,60.0,27.0,-100.00,NE,35,5.0,10.0,28,-99.99,,,-99.99,,2013-07-16 08:43:00,
2013-07-16 02:52:00,60.0,28.0,-100.00,NE,41,4.0,9.0,29,-99.99,,,-99.99,,2013-07-16 08:52:00,
2013-07-16 03:01:00,60.0,28.0,-100.00,NE,41,4.0,9.0,29,-99.99,,,-99.99,,2013-07-16 09:01:00,
2013-07-16 03:12:00,60.0,26.0,-100.00,NE,35,6.0,10.0,27,-99.99,,,-99.99,,2013-07-16 09:12:00,
2013-07-16 03:22:00,60.0,26.0,-100.00,NNE,30,7.0,10.0,27,-99.99,,,-99.99,,2013-07-16 09:22:00,
2013-07-16 03:32:00,60.0,26.0,-100.00,NNE,30,7.0,10.0,27,-99.99,,,-99.99,,2013-07-16 09:32:00,
2013-07-16 03:42:00,60.0,26.0,-100.00,NNE,26,6.0,10.0,27,-99.99,,,-99.99,,2013-07-16 09:42:00,
2013-07-16 04:01:00,60.0,26.0,-100.00,NNE,33,6.0,11.0,27,-99.99,,,-99.99,,2013-07-16 10:01:00,
2013-07-16 04:11:00,60.0,26.0,-100.00,ENE,59,6.0,12.0,27,-99.99,,,-99.99,,2013-07-16 10:11:00,
2013-07-16 04:31:00,60.0,26.0,-100.00,NE,34,8.0,12.0,27,-99.99,,,-99.99,,2013-07-16 10:31:00,
2013-07-16 04:42:00,60.0,27.0,-100.00,NE,34,8.0,12.0,28,-99.99,,,-99.99,,2013-07-16 10:42:00,
2013-07-16 04:52:00,61.0,28.0,-100.00,ENE,67,4.0,10.0,28,-99.99,,,-99.99,,2013-07-16 10:52:00,
2013-07-16 05:01:00,61.0,28.0,-100.00,ENE,67,4.0,10.0,28,-99.99,,,-99.99,,2013-07-16 11:01:00,
2013-07-16 05:22:00,60.0,26.0,-100.00,SE,127,6.0,10.0,27,-99.99,,,-99.99,,2013-07-16 11:22:00,
2013-07-16 05:32:00,60.0,26.0,-100.00,SE,127,6.0,10.0,27,-99.99,,,-99.99,,2013-07-16 11:32:00,
2013-07-16 05:42:00,60.0,27.0,-100.00,SE,140,7.0,10.0,28,-99.99,,,-99.99,,2013-07-16 11:42:00,
2013-07-16 05:53:00,59.0,27.0,-100.00,SSE,163,7.0,11.0,29,-99.99,,,-99.99,,2013-07-16 11:53:00,
2013-07-16 06:01:00,59.0,27.0,-100.00,SSE,163,7.0,11.0,29,-99.99,,,-99.99,,2013-07-16 12:01:00,
2013-07-16 06:22:00,59.0,31.0,-100.00,SE,142,7.0,10.0,34,-99.99,,,-99.99,,2013-07-16 12:22:00,
2013-07-16 06:32:00,59.0,31.0,-100.00,SE,142,7.0,10.0,34,-99.99,,,-99.99,,2013-07-16 12:32:00,
2013-07-16 06:43:00,59.0,35.0,-100.00,SE,144,8.0,12.0,40,-99.99,,,-99.99,,2013-07-16 12:43:00,
2013-07-16 06:53:00,59.0,35.0,-100.00,SE,144,8.0,12.0,40,-99.99,,,-99.99,,2013-07-16 12:53:00,
2013-07-16 07:01:00,59.0,35.0,-100.00,SSE,160,7.0,13.0,40,-99.99,,,-99.99,,2013-07-16 13:01:00,
2013-07-16 07:11:00,59.0,37.0,-100.00,SE,146,8.0,11.0,44,-99.99,,,-99.99,,2013-07-16 13:11:00,
2013-07-16 07:21:00,59.0,37.0,-100.00,SE,146,8.0,11.0,44,-99.99,,,-99.99,,2013-07-16 13:21:00,
2013-07-16 07:32:00,60.0,38.0,-100.00,SSE,153,6.0,9.0,44,-99.99,,,-99.99,,2013-07-16 13:32:00,
2013-07-16 07:42:00,61.0,39.0,-100.00,SSE,151,7.0,11.0,44,-99.99,,,-99.99,,2013-07-16 13:42:00,
2013-07-16 07:52:00,61.0,39.0,-100.00,SSE,151,7.0,11.0,44,-99.99,,,-99.99,,2013-07-16 13:52:00,
2013-07-16 08:01:00,61.0,40.0,-100.00,SSE,161,9.0,15.0,45,-99.99,,,-99.99,,2013-07-16 14:01:00,
2013-07-16 08:21:00,63.0,39.0,-100.00,SSE,156,8.0,12.0,41,-99.99,,,-99.99,,2013-07-16 14:21:00,
2013-07-16 08:32:00,63.0,39.0,-100.00,SSE,156,8.0,12.0,41,-99.99,,,-99.99,,2013-07-16 14:32:00,
2013-07-16 09:21:00,65.0,39.0,-100.00,SSE,164,9.0,12.0,39,-99.99,,,-99.99,,2013-07-16 15:21:00,
2013-07-16 09:32:00,63.0,39.0,-100.00,SSE,164,12.0,15.0,41,-99.99,,,-99.99,,2013-07-16 15:32:00,
2013-07-16 09:43:00,63.0,39.0,-100.00,SSE,161,11.0,15.0,41,-99.99,,,-99.99,,2013-07-16 15:43:00,
2013-07-16 10:01:00,63.0,38.0,-100.00,SSE,157,9.0,12.0,40,-99.99,,,-99.99,,2013-07-16 16:01:00,
2013-07-16 10:11:00,64.0,39.0,-100.00,SSE,165,9.0,13.0,39,-99.99,,,-99.99,,2013-07-16 16:11:00,
2013-07-16 10:21:00,64.0,39.0,-100.00,SSE,165,9.0,13.0,39,-99.99,,,-99.99,,2013-07-16 16:21:00,
2013-07-16 10:32:00,64.0,39.0,-100.00,SSE,165,10.0,14.0,40,-99.99,,,-99.99,,2013-07-16 16:32:00,
2013-07-16 10:43:00,65.0,39.0,-100.00,South,170,10.0,13.0,39,-99.99,,,-99.99,,2013-07-16 16:43:00,
2013-07-16 11:02:00,64.0,40.0,-100.00,SSE,168,7.0,11.0,41,-99.99,,,-99.99,,2013-07-16 17:02:00,
2013-07-16 11:12:00,63.0,40.0,-100.00,SSE,150,6.0,12.0,42,-99.99,,,-99.99,,2013-07-16 17:12:00,
2013-07-16 11:22:00,63.0,40.0,-100.00,SSE,150,6.0,12.0,42,-99.99,,,-99.99,,2013-07-16 17:22:00,
2013-07-16 11:32:00,63.0,40.0,-100.00,SSE,161,10.0,16.0,42,-99.99,,,-99.99,,2013-07-16 17:32:00,
2013-07-16 11:43:00,62.0,39.0,-100.00,SSE,165,9.0,13.0,42,-99.99,,,-99.99,,2013-07-16 17:43:00,
2013-07-16 12:01:00,63.0,40.0,-100.00,SSE,165,8.0,13.0,42,-99.99,,,-99.99,,2013-07-16 18:01:00,
2013-07-16 12:11:00,63.0,40.0,-100.00,SSE,167,8.0,11.0,42,-99.99,,,-99.99,,2013-07-16 18:11:00,
2013-07-16 12:22:00,63.0,40.0,-100.00,SSE,167,8.0,11.0,42,-99.99,,,-99.99,,2013-07-16 18:22:00,
2013-07-16 12:32:00,63.0,40.0,-100.00,SSE,160,6.0,10.0,43,-99.99,,,-99.99,,2013-07-16 18:32:00,
2013-07-16 12:43:00,63.0,40.0,-100.00,South,169,8.0,12.0,43,-99.99,,,-99.99,,2013-07-16 18:43:00,
2013-07-16 13:01:00,63.0,41.0,-100.00,SSE,166,7.0,10.0,44,-99.99,,,-99.99,,2013-07-16 19:01:00,
2013-07-16 13:11:00,63.0,41.0,-100.00,SSE,166,5.0,8.0,44,-99.99,,,-99.99,,2013-07-16 19:11:00,
2013-07-16 13:22:00,63.0,41.0,-100.00,SSE,166,5.0,8.0,44,-99.99,,,-99.99,,2013-07-16 19:22:00,
2013-07-16 13:32:00,64.0,42.0,-100.00,South,174,2.0,5.0,44,-99.99,,,-99.99,,2013-07-16 19:32:00,
2013-07-16 13:43:00,64.0,42.0,-100.00,SSE,162,3.0,5.0,45,-99.99,,,-99.99,,2013-07-16 19:43:00,
2013-07-16 14:03:00,63.0,42.0,-100.00,WNW,283,4.0,9.0,47,-99.99,,,-99.99,,2013-07-16 20:03:00,
2013-07-16 14:11:00,63.0,45.0,-100.00,NW,315,4.0,8.0,51,-99.99,,,-99.99,,2013-07-16 20:11:00,
2013-07-16 14:22:00,63.0,45.0,-100.00,NW,315,4.0,8.0,51,-99.99,,,-99.99,,2013-07-16 20:22:00,
2013-07-16 14:32:00,63.0,44.0,-100.00,NNW,338,2.0,7.0,49,-99.99,,,-99.99,,2013-07-16 20:32:00,
2013-07-16 14:43:00,65.0,43.0,-100.00,SSE,156,3.0,6.0,45,-99.99,,,-99.99,,2013-07-16 20:43:00,
2013-07-16 14:52:00,65.0,43.0,-100.00,SSE,156,3.0,6.0,45,-99.99,,,-99.99,,2013-07-16 20:52:00,
2013-07-16 15:11:00,65.0,44.0,-100.00,SSE,161,3.0,6.0,47,-99.99,,,-99.99,,2013-07-16 21:11:00,
2013-07-16 15:22:00,63.0,45.0,-100.00,SSE,156,1.0,4.0,51,-99.99,,,-99.99,,2013-07-16 21:22:00,
2013-07-16 15:32:00,62.0,46.0,-100.00,NW,317,4.0,10.0,55,-99.99,,,-99.99,,2013-07-16 21:32:00,
2013-07-16 15:43:00,62.0,46.0,-100.00,NW,317,4.0,10.0,55,-99.99,,,-99.99,,2013-07-16 21:43:00,
2013-07-16 15:52:00,61.0,42.0,-100.00,NW,319,6.0,10.0,49,-99.99,,,-99.99,,2013-07-16 21:52:00,
2013-07-16 16:01:00,63.0,44.0,-100.00,SSE,151,3.0,7.0,49,-99.99,,,-99.99,,2013-07-16 22:01:00,
2013-07-16 16:11:00,64.0,45.0,-100.00,SSE,155,6.0,8.0,50,-99.99,,,-99.99,,2013-07-16 22:11:00,
2013-07-16 16:22:00,64.0,45.0,-100.00,SSE,155,6.0,8.0,50,-99.99,,,-99.99,,2013-07-16 22:22:00,
2013-07-16 16:33:00,64.0,45.0,-100.00,SE,128,7.0,10.0,51,-99.99,,,-99.99,,2013-07-16 22:33:00,
2013-07-16 16:43:00,63.0,43.0,-100.00,SE,127,7.0,12.0,48,-99.99,,,-99.99,,2013-07-16 22:43:00,
2013-07-16 16:52:00,63.0,43.0,-100.00,SE,127,7.0,12.0,48,-99.99,,,-99.99,,2013-07-16 22:52:00,
2013-07-16 17:01:00,65.0,44.0,-100.00,SE,131,8.0,15.0,46,-99.99,,,-99.99,,2013-07-16 23:01:00,
2013-07-16 17:32:00,62.0,44.0,-100.00,ENE,76,9.0,17.0,51,-99.99,,,-99.99,,2013-07-16 23:32:00,
2013-07-16 17:42:00,61.0,44.0,-100.00,East,100,10.0,15.0,53,-99.99,,,-99.99,,2013-07-16 23:42:00,
2013-07-16 18:01:00,61.0,44.0,-100.00,East,101,11.0,17.0,53,-99.99,,,-99.99,,2013-07-17 00:01:00,
2013-07-16 18:11:00,60.0,43.0,-100.00,East,98,9.0,17.0,53,-99.99,,,-99.99,,2013-07-17 00:11:00,
2013-07-16 18:33:00,60.0,44.0,-100.00,East,86,6.0,17.0,55,-99.99,,,-99.99,,2013-07-17 00:33:00,
2013-07-16 18:42:00,60.0,44.0,-100.00,East,86,6.0,17.0,55,-99.99,,,-99.99,,2013-07-17 00:42:00,
2013-07-16 19:01:00,60.0,44.0,-100.00,North,11,6.0,11.0,55,-99.99,,,-99.99,,2013-07-17 01:01:00,
2013-07-16 19:22:00,60.0,42.0,-100.00,NNW,338,6.0,9.0,52,-99.99,,,-99.99,,2013-07-17 01:22:00,
2013-07-16 19:32:00,59.0,41.0,-100.00,NW,326,5.0,8.0,51,-99.99,,,-99.99,,2013-07-17 01:32:00,
2013-07-16 19:42:00,60.0,42.0,-100.00,NNE,21,6.0,14.0,51,-99.99,,,-99.99,,2013-07-17 01:42:00,
2013-07-16 19:53:00,60.0,42.0,-100.00,NNE,21,6.0,14.0,51,-99.99,,,-99.99,,2013-07-17 01:53:00,
2013-07-16 20:11:00,55.0,45.0,-100.00,NNE,13,14.0,24.0,70,-99.99,,,-99.99,,2013-07-17 02:11:00,
2013-07-16 20:22:00,55.0,45.0,-100.00,NNE,13,14.0,24.0,70,-99.99,,,-99.99,,2013-07-17 02:22:00,
2013-07-16 20:32:00,53.0,45.0,-100.00,North,7,16.0,23.0,73,-99.99,,,-99.99,,2013-07-17 02:32:00,
2013-07-16 20:43:00,54.0,43.0,-100.00,NNE,19,16.0,24.0,67,-99.99,,,-99.99,,2013-07-17 02:43:00,
2013-07-16 20:53:00,54.0,45.0,-100.00,NNE,15,14.0,21.0,71,-99.99,,,-99.99,,2013-07-17 02:53:00,
2013-07-16 21:01:00,54.0,45.0,-100.00,NNE,15,14.0,21.0,71,-99.99,,,-99.99,,2013-07-17 03:01:00,
2013-07-16 21:22:00,53.0,46.0,-100.00,NE,34,9.0,16.0,76,-99.99,,,-99.99,,2013-07-17 03:22:00,
2013-07-16 21:32:00,53.0,45.0,-100.00,ENE,77,10.0,17.0,75,-99.99,,,-99.99,,2013-07-17 03:32:00,
2013-07-16 21:43:00,53.0,46.0,-100.00,ESE,122,13.0,22.0,77,-99.99,,,-99.99,,2013-07-17 03:43:00,
2013-07-16 21:53:00,53.0,46.0,-100.00,ESE,122,13.0,22.0,77,-99.99,,,-99.99,,2013-07-17 03:53:00,
2013-07-16 22:01:00,52.0,46.0,-100.00,East,90,15.0,21.0,79,-99.99,,,-99.99,,2013-07-17 04:01:00,
2013-07-16 22:11:00,52.0,47.0,-100.00,SE,130,13.0,20.0,84,-99.99,,,-99.99,,2013-07-17 04:11:00,
2013-07-16 22:22:00,51.0,47.0,-100.00,SE,143,11.0,15.0,86,-99.99,,,-99.99,,2013-07-17 04:22:00,
2013-07-16 22:32:00,51.0,47.0,-100.00,SE,143,11.0,15.0,86,-99.99,,,-99.99,,2013-07-17 04:32:00,
2013-07-16 22:43:00,51.0,46.0,-100.00,SE,142,12.0,18.0,84,-99.99,,,-99.99,,2013-07-17 04:43:00,
2013-07-16 22:53:00,51.0,46.0,-100.00,SE,142,12.0,18.0,84,-99.99,,,-99.99,,2013-07-17 04:53:00,
2013-07-16 23:01:00,52.0,46.0,-100.00,SSE,155,11.0,16.0,79,-99.99,,,-99.99,,2013-07-17 05:01:00,
2013-07-16 23:32:00,53.0,46.0,-100.00,SE,141,8.0,11.0,76,-99.99,,,-99.99,,2013-07-17 05:32:00,
2013-07-16 23:43:00,53.0,46.0,-100.00,SE,133,4.0,8.0,78,-99.99,,,-99.99,,2013-07-17 05:43:00,
2013-07-16 23:52:00,53.0,46.0,-100.00,SE,133,4.0,8.0,78,-99.99,,,-99.99,,2013-07-17 05:52:00,